This demonstration page uses our WeatherBlox Daily Observations layout. Learn more.

Left ArrowRight Arrow

Hourly Observations for August 8, 2019

Temp ( °F °C ) Dew Point ( °F °C ) Humidity (%) Winds ( mph kmh ) Pressure ( in mb ) Visibility ( mi km ) Precip ( " mm )
12:53 am 00:53 Clear 88 31.1 57 13.9 35 35 SSE 14 22 29.76 1008 10 16 0.00 0.00
1:53 am 01:53 Clear 86 30 56 13.3 36 36 S 12 19 29.77 1008 10 16 0.00 0.00
2:53 am 02:53 Clear 85 29.4 57 13.9 39 39 S 14 22 29.76 1008 10 16 0.00 0.00
3:53 am 03:53 Clear 83 28.3 59 15 44 44 S 9 15 29.76 1008 10 16 0.00 0.00
4:53 am 04:53 Clear 80 26.7 59 15 49 49 SSE 6 9 29.75 1007 10 16 0.00 0.00
5:53 am 05:53 Clear 78 25.6 59 15 52 52 Calm 29.75 1008 10 16 0.00 0.00
6:53 am 06:53 Clear 77 25 59 15 54 54 E 6 9 29.77 1008 10 16 0.00 0.00
7:53 am 07:53 Sunny 78 25.6 60 15.6 54 54 ESE 8 13 29.77 1008 10 16 0.00 0.00
8:53 am 08:53 Sunny 81 27.2 62 16.7 53 53 SE 15 24 29.79 1009 10 16 0.00 0.00
9:53 am 09:53 Sunny 87 30.6 63 17.2 45 45 SE 12 19 29.79 1009 10 16 0.00 0.00
11:53 am 11:53 Sunny 94 34.4 60 15.6 32 32 ESE 7 11 29.78 1009 10 16 0.00 0.00
12:53 pm 12:53 Sunny 96 35.6 59 15 29 29 S 7 11 29.77 1008 10 16 0.00 0.00
1:53 pm 13:53 Sunny 99 37.2 56 13.3 24 24 S 9 15 29.75 1007 10 16 0.00 0.00
2:53 pm 14:53 Sunny 101 38.3 56 13.3 22 22 ESE 10 17 29.73 1007 10 16 0.00 0.00
3:53 pm 15:53 Sunny 103 39.4 54 12.2 20 20 SSE 14 22 29.70 1006 10 16 0.00 0.00
4:53 pm 16:53 Sunny 103 39.4 52 11.1 18 18 VRB 7 11 29.68 1005 10 16 0.00 0.00
5:53 pm 17:53 Sunny 103 39.4 51 10.6 18 18 E 5 7 29.66 1005 10 16 0.00 0.00
6:53 pm 18:53 Sunny 103 39.4 50 10 17 17 E 12 19 29.65 1004 10 16 0.00 0.00
7:53 pm 19:53 Sunny 101 38.3 53 11.7 20 20 ESE 14 22 29.65 1004 10 16 0.00 0.00
8:53 pm 20:53 Clear 98 36.7 53 11.7 22 22 ESE 10 17 29.67 1005 10 16 0.00 0.00
9:53 pm 21:53 Clear 95 35 56 13.3 27 27 SE 15 24 29.70 1006 10 16 0.00 0.00
10:53 pm 22:53 Clear 92 33.3 56 13.3 30 30 SSE 16 26 29.72 1007 10 16 0.00 0.00
11:53 pm 23:53 Clear 90 32.2 59 15 35 35 SSE 16 26 29.75 1008 10 16 0.00 0.00

Powered by AerisWeather